User: anonymous   Login
Location: *
(37.5724°S, 58.0067°E)
Time: 03:26:41
(UTC+00:00)
Language:

Cosmos 1733 - Orbit

View from above orbital plane
View from above orbital plane
View from above satellite
View from above satellite

Ground track
Ground track

The orbit data is extracted from the following two-line orbital elements,

1 16611U 86018A   20338.16166297  .00001413  00000-0  68715-4 0  9992
2 16611  82.4905 225.3766 0010629 272.5601  87.4416 15.17585915900496
Epoch (UTC): 03 December 2020 03:52:47
Eccentricity: 0.0010629
inclination: 82.4905°
perigee height: 506 km
apogee height: 520 km
right ascension of ascending node: 225.3766°
argument of perigee: 272.5601°
revolutions per day: 15.17585915
mean anomaly at epoch: 87.4416°
orbit number at epoch: 90049

The dashed part of the orbit path shows where the satellite is in the earth's shadow,  

DLR